Juneau, WI

5:13 PM CDT on July 26, 2017 (GMT -0500)
Dodge County

Weather History for KUNU - September, 2014

Change the Weather History Date:

Sunday, September 7, 2014

  Actual Average Record
Temperature  
Mean Temperature 62 °F -  
Max Temperature 76 °F 74 °F 91 °F (1978)
Min Temperature 48 °F 54 °F 39 °F (1986)
Degree Days  
Heating Degree Days 3    
Growing Degree Days 12 (Base 50)    
Moisture  
Dew Point 52 °F    
Average Humidity 71    
Maximum Humidity 97    
Minimum Humidity 38    
Precipitation  
Precipitation 0.00 in - - ()
Sea Level Pressure  
Sea Level Pressure 30.18 in    
Wind  
Wind Speed 2 mph (South)    
Max Wind Speed 7 mph    
Max Gust Speed -    
Visibility 10 miles    
Events      
Averages and records for this station are not official NWS values.
T = Trace of Precipitation, MM = Missing Value Source: NWS Daily Summary

Daily Weather History Graph

Daily Weather History Graph

Search for Another Location

Airport or City:

Trip Planner

Search our weather history database for the weather conditions in past years. The results will help you decide how hot, cold, wet, or windy it might be!

Date:

Astronomy

Sep. 07, 2014 Rise Set
Actual Time 6:25 AM CDT 7:19 PM CDT
Civil Twilight 5:56 AM CDT 7:48 PM CDT
Nautical Twilight 5:21 AM CDT 8:22 PM CDT
Astronomical Twilight 4:45 AM CDT 8:58 PM CDT
Moon 6:19 PM CDT (9/7) 4:36 AM CDT (9/7)
Length of Visible Light 13h 52m
Length of Day
12h 53m
Waxing Gibbous, 97% of the Moon is Illuminated
Sep 7
Waxing Gibbous
Sep 8
Full
Sep 15
Last Quarter
Sep 24
New
Oct 1
First Quarter

Hourly Weather History & Observations

Time (CDT) Temp. Dew Point Humidity Pressure Visibility Wind Dir Wind Speed Gust Speed Precip Events Conditions
12:35 AM 53.4 °F 51.1 °F 92% 30.19 in 10.0 mi Calm Calm - N/A   Clear
12:55 AM 52.3 °F 50.7 °F 94% 30.19 in 10.0 mi Calm Calm - N/A   Clear
1:15 AM 52.3 °F 50.4 °F 93% 30.19 in 10.0 mi Calm Calm - N/A   Clear
1:35 AM 52.3 °F 50.5 °F 94% 30.19 in 10.0 mi Calm Calm - N/A   Clear
1:55 AM 53.2 °F 50.5 °F 91% 30.19 in 10.0 mi Calm Calm - N/A   Clear
2:15 AM 51.3 °F 49.5 °F 94% 30.19 in 10.0 mi Calm Calm - N/A   Clear
2:35 AM 52.9 °F 50.0 °F 90% 30.19 in 10.0 mi Calm Calm - N/A   Clear
2:55 AM 50.4 °F 48.9 °F 95% 30.19 in 10.0 mi Calm Calm - N/A   Clear
3:15 AM 50.9 °F 49.3 °F 94% 30.19 in 10.0 mi Calm Calm - N/A   Clear
3:35 AM 50.4 °F 49.1 °F 95% 30.19 in 10.0 mi Calm Calm - N/A   Clear
3:55 AM 49.6 °F 48.7 °F 97% 30.19 in 10.0 mi Calm Calm - N/A   Clear
4:15 AM 50.7 °F 49.6 °F 96% 30.19 in 10.0 mi Calm Calm - N/A   Clear
4:35 AM 50.9 °F 49.5 °F 95% 30.19 in 10.0 mi Calm Calm - N/A   Clear
4:55 AM 51.4 °F 49.3 °F 92% 30.19 in 10.0 mi Calm Calm - N/A   Clear
5:55 AM 50.2 °F 48.4 °F 94% 30.20 in 10.0 mi Calm Calm - N/A   Clear
6:15 AM 48.6 °F 47.3 °F 95% 30.21 in 10.0 mi Calm Calm - N/A   Clear
6:35 AM 49.3 °F 48.2 °F 96% 30.21 in 10.0 mi SSE 3.5 mph - N/A   Clear
6:55 AM 50.0 °F 48.2 °F 94% 30.21 in 10.0 mi Calm Calm - N/A   Clear
7:15 AM 50.7 °F 49.1 °F 94% 30.21 in 10.0 mi Calm Calm - N/A   Clear
7:35 AM 52.9 °F 50.9 °F 93% 30.21 in 10.0 mi Calm Calm - N/A   Clear
7:55 AM 55.8 °F 52.7 °F 89% 30.21 in 10.0 mi Calm Calm - N/A   Clear
8:15 AM 57.2 °F 54.1 °F 89% 30.21 in 10.0 mi Calm Calm - N/A   Clear
8:35 AM 59.9 °F 54.1 °F 81% 30.21 in 10.0 mi SW 4.6 mph - N/A   Clear
8:55 AM 60.6 °F 54.0 °F 79% 30.22 in 10.0 mi SSW 4.6 mph - N/A   Scattered Clouds
9:15 AM 62.1 °F 54.3 °F 76% 30.22 in 10.0 mi WSW 4.6 mph - N/A   Scattered Clouds
9:35 AM 63.7 °F 55.0 °F 73% 30.22 in 10.0 mi SSW 4.6 mph - N/A   Scattered Clouds
9:55 AM 65.3 °F 55.2 °F 70% 30.22 in 10.0 mi SSW 4.6 mph - N/A   Clear
10:15 AM 67.3 °F 55.8 °F 66% 30.22 in 10.0 mi South 4.6 mph - N/A   Clear
10:35 AM 68.7 °F 55.2 °F 62% 30.22 in 10.0 mi South 5.8 mph - N/A   Clear
11:15 AM 71.1 °F 55.4 °F 58% 30.22 in 10.0 mi SW 5.8 mph - N/A   Clear
11:35 AM 72.0 °F 55.6 °F 56% 30.21 in 10.0 mi South 5.8 mph - N/A   Clear
11:55 AM 72.9 °F 55.4 °F 54% 30.21 in 10.0 mi WSW 4.6 mph - N/A   Clear
12:15 PM 73.2 °F 53.2 °F 49% 30.20 in 10.0 mi Calm Calm - N/A   Clear
12:35 PM 73.9 °F 51.4 °F 45% 30.20 in 10.0 mi West 3.5 mph - N/A   Clear
12:55 PM 74.1 °F 51.1 °F 44% 30.19 in 10.0 mi West 4.6 mph - N/A   Scattered Clouds
1:15 PM 74.5 °F 52.7 °F 46% 30.19 in 10.0 mi Calm Calm - N/A   Clear
1:35 PM 74.8 °F 51.8 °F 44% 30.19 in 10.0 mi Calm Calm - N/A   Scattered Clouds
1:55 PM 76.5 °F 53.8 °F 45% 30.19 in 10.0 mi NNW 3.5 mph - N/A   Mostly Cloudy
2:15 PM 75.6 °F 50.9 °F 42% 30.18 in 10.0 mi WSW 5.8 mph - N/A   Mostly Cloudy
2:35 PM 75.9 °F 50.9 °F 41% 30.17 in 10.0 mi SW 4.6 mph - N/A   Overcast
2:55 PM 75.0 °F 49.8 °F 41% 30.16 in 10.0 mi Calm Calm - N/A   Scattered Clouds
3:15 PM 76.1 °F 49.3 °F 39% 30.16 in 10.0 mi South 4.6 mph - N/A   Scattered Clouds
3:35 PM 76.1 °F 50.0 °F 40% 30.15 in 10.0 mi South 5.8 mph - N/A   Clear
3:55 PM 75.9 °F 48.4 °F 38% 30.15 in 10.0 mi SSE 5.8 mph - N/A   Clear
4:15 PM 75.9 °F 50.5 °F 41% 30.15 in 10.0 mi SSW 4.6 mph - N/A   Clear
4:55 PM 75.9 °F 50.9 °F 41% 30.14 in 10.0 mi South 4.6 mph - N/A   Clear
5:35 PM 74.8 °F 51.8 °F 44% 30.13 in 10.0 mi SE 4.6 mph - N/A   Clear
5:55 PM 74.3 °F 53.1 °F 47% 30.13 in 10.0 mi SE 3.5 mph - N/A   Clear
6:15 PM 73.9 °F 52.3 °F 47% 30.13 in 10.0 mi Calm Calm - N/A   Clear
6:35 PM 72.9 °F 53.4 °F 50% 30.13 in 10.0 mi SE 3.5 mph - N/A   Clear
6:55 PM 71.4 °F 53.8 °F 54% 30.12 in 10.0 mi SE 3.5 mph - N/A   Clear
7:15 PM 70.2 °F 54.3 °F 57% 30.12 in 10.0 mi SE 3.5 mph - N/A   Clear
7:35 PM 66.7 °F 54.5 °F 65% 30.12 in 10.0 mi Calm Calm - N/A   Clear
7:55 PM 65.3 °F 54.9 °F 69% 30.12 in 10.0 mi ESE 5.8 mph - N/A   Clear
8:15 PM 64.2 °F 56.1 °F 75% 30.13 in 10.0 mi SE 6.9 mph - N/A   Clear
8:55 PM 63.5 °F 54.7 °F 73% 30.14 in 10.0 mi SE 4.6 mph - N/A   Clear
9:15 PM 62.4 °F 54.7 °F 76% 30.14 in 10.0 mi SE 5.8 mph - N/A   Clear
9:35 PM 61.7 °F 54.7 °F 78% 30.14 in 10.0 mi SE 6.9 mph - N/A   Clear
9:55 PM 60.8 °F 54.9 °F 81% 30.14 in 10.0 mi SE 4.6 mph - N/A   Clear
10:15 PM 60.3 °F 55.0 °F 83% 30.15 in 10.0 mi ESE 5.8 mph - N/A   Scattered Clouds
10:55 PM 59.0 °F 54.9 °F 86% 30.15 in 10.0 mi SE 5.8 mph - N/A   Scattered Clouds
11:15 PM 58.1 °F 54.7 °F 88% 30.14 in 10.0 mi SE 5.8 mph - N/A   Scattered Clouds
11:35 PM 58.3 °F 54.5 °F 87% 30.14 in 10.0 mi SE 4.6 mph - N/A   Scattered Clouds
11:55 PM 57.4 °F 54.0 °F 88% 30.14 in 10.0 mi Calm Calm - N/A   Scattered Clouds